Tracking 19475 objects as of 18-Jan-2019
HD Live streaming from Space Station
objects crossing your sky now

GLOBALSTAR M025

Track GLOBALSTAR M025 now!
10-day predictions
GLOBALSTAR M025 is classified as:


NORAD ID: 25770
Int'l Code: 1999-031A
Perigee: 2,052.7 km
Apogee: 2,056.6 km
Inclination: 52.0 °
Period: 128.3 minutes
Semi major axis: 8425 km
RCS: 2.453 m2 (large)
Launch date: June 10, 1999
Source: Globalstar (GLOB)
Launch site: AIR FORCE EASTERN TEST RANGE (AFETR)
aabbcc
Your satellite tracking list
Your tracking list is empty




NASA's NSSDC Master Catalog

Two Line Element Set (TLE):
1 25770U 99031A   19017.76474826 -.00000051 +00000-0 +49741-3 0  9990
2 25770 051.9783 185.4829 0002291 135.4204 322.7182 11.22526851218656
Source of the keplerian elements: AFSPC